Regional Weather Roundup
Issued by NWS Albany, NY

Home | Current Version | Previous Version | Text Only | Print | Product List | Glossary On
Versions: 1 2 3 4 5 6 7 8 9 10 11 12 13 14 15 16 17 18 19 20 21 22 23 24 25 26 27 28 29 30 31 32 33 34 35 36 37 38 39 40 41 42 43 44 45 46 47 48 49 50
000
ASUS41 KALY 190810
RWRALY

NEW YORK STATE HOURLY WEATHER ROUNDUP
NATIONAL WEATHER SERVICE ALBANY NY
400 AM EDT SUN APR 19 2015

NOTE: "FAIR" INDICATES FEW OR NO CLOUDS BELOW 12,000 FEET WITH NO
SIGNIFICANT WEATHER AND/OR NO OBSTRUCTIONS TO VISIBILITY.

NYZ032-033-038>043-046>054-057>066-NYZ062>081-190900-
EAST


CITY           SKY/WX    TMP DP  RH WIND       PRES   REMARKS
ALBANY         CLEAR     43  32  65 N7        30.22R
GLENS FALLS    CLEAR     34  29  82 NW3       30.21R
POUGHKEEPSIE   CLEAR     48  26  42 NE5       30.15R
NEWBURGH       CLEAR     50  27  40 NE12      30.15R
MONTGOMERY     CLEAR     44  26  49 NE6       30.14R
WHITE PLAINS   CLEAR     51  22  31 N7        30.14R
ISLIP          PTCLDY    50  32  50 CALM      30.13R
NEW YORK CITY  PTCLDY    53  28  38 NE6       30.14R
CENTRAL PARK   CLEAR     57  19  22 NE12G17   30.17R
$$

NYZ005>009-017-018-044>046-055-056-190900-
CENTRAL


CITY           SKY/WX    TMP DP  RH WIND       PRES   REMARKS
FULTON         CLEAR     39  28  64 NE7       30.23R WCI  34
SYRACUSE       CLEAR     40  29  64 NE6       30.22R
ROME           CLEAR     38  27  64 E3        30.24R
ELMIRA         FAIR      31  27  85 CALM      30.18R
BINGHAMTON     CLEAR     40  25  55 NE6       30.15R
MONTICELLO     PTCLDY    43  21  42 NE7       30.14S
$$

NYZ026>034-041>043-190900-
NORTH


CITY           SKY/WX    TMP DP  RH WIND       PRES   REMARKS
WATERTOWN      CLEAR     32  27  81 NE8       30.26R WCI  25
FORT DRUM      NOT AVBL
MASSENA        CLEAR     30  25  81 CALM      30.29S
SARANAC LAKE   CLEAR     27  24  89 N3        30.20R
PLATTSBURGH    PTCLDY    38  28  67 NW12      30.25R WCI  30
$$

NYZ001>004-010>016-019>021-190900-
WEST


CITY           SKY/WX    TMP DP  RH WIND       PRES   REMARKS
NIAGARA FALLS  CLEAR     43  28  55 E12G22    30.19R
BUFFALO        PTCLDY    44  28  53 E14       30.19R
DUNKIRK        PTCLDY    41  28  60 NE8       30.15R
JAMESTOWN      PTCLDY    43  21  42 E8        30.12F
WELLSVILLE     CLEAR     40  23  50 E6        30.17R
ROCHESTER      CLEAR     42  29  59 E12G21    30.23R
PENN YAN       CLEAR     41  28  60 VRB3      30.20R
$$

             KEY
       WCI = WIND CHILL INDEX
       VSB = VISIBILITY
       HX  = HEAT INDEX
$$



USA.gov is the U.S. government's official web portal to all federal, state and local government web resources and services.